SQ9RHX-13 Weather Reports


time (UTC)temp
C
wind
direction
speed
KPH
gust
KPH
rain 1hr
cm
rain 24hr
cm
rain mn
cm
humidity
%
barometer
mb
20260506082503 20 152 1.6 3.2 0.00 0.00 0.00 60 1009.8
20260506082005 20 43 1.6 4.8 0.00 0.00 0.00 60 1009.7
20260506081503 19 286 3.2 4.8 0.00 0.00 0.00 63 1009.8
20260506081002 20 299 3.2 9.7 0.00 0.00 0.00 61 1009.7
20260506080503 19 261 1.6 8.0 0.00 0.00 0.00 63 1009.8
20260506073502 19 302 8.0 9.7 0.00 0.00 0.00 64 1009.6
20260506073003 18 171 6.4 9.7 0.00 0.00 0.00 67 1009.4
20260506072503 18 301 1.6 4.8 0.00 0.00 0.00 68 1009.4
20260506072005 18 214 4.8 8.0 0.00 0.00 0.00 67 1009.4
20260506071503 17 140 0.0 3.2 0.00 0.00 0.00 69 1009.2
20260506071003 18 314 3.2 8.0 0.00 0.00 0.00 66 1009.3
20260506070504 18 80 3.2 4.8 0.00 0.00 0.00 66 1009.3
20260506062503 15 55 0.0 3.2 0.00 0.00 0.00 75 1009.3
20260506062005 15 199 4.8 4.8 0.00 0.00 0.00 75 1009.3
20260506061504 14 167 0.0 3.2 0.00 0.00 0.00 77 1009.6
20260506061005 13 145 0.0 3.2 0.00 0.00 0.00 79 1009.5
20260506060503 14 154 0.0 1.6 0.00 0.00 0.00 78 1009.4
20260506051004 13 132 0.0 1.6 0.00 0.00 0.00 82 1009.1
20260506050502 13 13 0.0 1.6 0.00 0.00 0.00 81 1009.0
20260506045003 12 44 0.0 0.0 0.00 0.00 0.00 84 1008.8
20260506044503 12 329 3.2 3.2 0.00 0.00 0.00 85 1008.8
20260506044004 12 172 1.6 1.6 0.00 0.00 0.00 86 1009.1
20260506043503 12 10 0.0 1.6 0.00 0.00 0.00 88 1008.9
20260506043003 11 88 0.0 1.6 0.00 0.00 0.00 90 1008.8
20260506042502 11 12 0.0 3.2 0.00 0.00 0.00 91 1008.5
20260506042002 11 359 0.0 1.6 0.00 0.00 0.00 93 1008.4
20260506041505 11 14 0.0 0.0 0.00 0.00 0.00 94 1008.7
20260506041004 10 39 0.0 0.0 0.00 0.00 0.00 94 1008.7
20260506040502 10 20 0.0 0.0 0.00 0.00 0.00 94 1008.9
20260506040005 10 20 0.0 0.0 0.00 0.00 0.00 94 1008.7
20260506035504 10 20 0.0 0.0 0.00 0.00 0.00 94 1008.8
20260506035003 10 20 0.0 0.0 0.00 0.00 0.00 94 1008.5
20260506034503 9 20 0.0 0.0 0.00 0.00 0.00 94 1008.5
20260506034004 9 20 0.0 0.0 0.00 0.00 0.00 93 1008.1
20260506033503 9 20 0.0 0.0 0.00 0.00 0.00 93 1008.1
20260506033003 9 20 0.0 0.0 0.00 0.00 0.00 92 1008.1
20260506032503 9 20 0.0 0.0 0.00 0.00 0.00 92 1008.1
20260506032002 9 20 0.0 0.0 0.00 0.00 0.00 92 1008.2
20260506031503 9 20 0.0 0.0 0.00 0.00 0.00 92 1008.1
20260506031004 10 20 0.0 0.0 0.00 0.00 0.00 91 1008.1
20260506030503 10 20 0.0 0.0 0.00 0.00 0.00 91 1008.2
20260506030003 10 20 0.0 0.0 0.00 0.00 0.00 91 1008.2
20260506025504 10 20 0.0 0.0 0.00 0.00 0.00 91 1008.3
20260506025004 10 20 0.0 0.0 0.00 0.00 0.00 91 1008.4
20260506024505 10 20 0.0 0.0 0.00 0.00 0.00 91 1008.6
20260506024003 10 20 0.0 0.0 0.00 0.00 0.00 91 1008.6
20260506023503 10 44 0.0 0.0 0.00 0.00 0.00 91 1008.6
20260506023005 10 20 0.0 0.0 0.00 0.00 0.00 92 1008.8
20260506022502 10 14 0.0 1.6 0.00 0.00 0.00 92 1008.9
20260506022003 10 10 0.0 1.6 0.00 0.00 0.00 92 1009.1
20260506021503 10 18 0.0 0.0 0.00 0.00 0.00 91 1008.7
20260506021004 10 18 0.0 0.0 0.00 0.00 0.00 91 1008.8
20260506020505 10 18 0.0 0.0 0.00 0.00 0.00 92 1008.8
20260506020003 10 18 0.0 0.0 0.00 0.00 0.00 92 1009.0
20260506015506 10 18 0.0 0.0 0.00 0.00 0.00 92 1008.9
20260506015005 10 19 0.0 0.0 0.00 0.00 0.00 92 1008.8
20260506014503 10 19 0.0 0.0 0.00 0.00 0.00 92 1008.6
20260506014004 9 24 0.0 0.0 0.00 0.00 0.00 91 1008.9
20260506013503 10 24 0.0 0.0 0.00 0.00 0.00 91 1008.8
20260506013003 10 24 0.0 0.0 0.00 0.00 0.00 91 1008.9
20260506012506 10 24 0.0 0.0 0.00 0.00 0.00 91 1008.7
20260506012003 10 24 0.0 0.0 0.00 0.00 0.00 91 1008.9
20260506011503 10 24 0.0 0.0 0.00 0.00 0.00 90 1008.8
20260506011005 10 24 0.0 0.0 0.00 0.00 0.00 90 1008.8
20260506010504 10 24 0.0 0.0 0.00 0.00 0.00 90 1008.8
20260506010003 10 24 0.0 0.0 0.00 0.00 0.00 90 1008.8
20260506005503 10 24 0.0 0.0 0.00 0.00 0.00 89 1008.8
20260506005003 10 24 0.0 0.0 0.00 0.00 0.00 89 1008.8
20260506004503 10 24 0.0 0.0 0.00 0.00 0.00 89 1008.9
20260506004004 10 24 0.0 0.0 0.00 0.00 0.00 89 1008.9
20260506003502 10 24 0.0 0.0 0.00 0.00 0.00 88 1008.8
20260506003002 10 24 0.0 0.0 0.00 0.00 0.00 88 1008.7
20260506002502 11 24 0.0 0.0 0.00 0.00 0.00 88 1008.6
20260506002003 10 24 0.0 0.0 0.00 0.00 0.00 89 1008.7
20260506001504 10 24 0.0 0.0 0.00 0.00 0.00 89 1008.8
20260506001004 10 24 0.0 0.0 0.00 0.00 0.00 88 1008.8
20260506000503 11 24 0.0 0.0 0.00 0.00 0.00 88 1008.8
20260506000003 11 24 0.0 0.0 0.00 0.00 0.00 87 1008.8
20260505235503 11 24 0.0 0.0 0.00 0.00 0.00 86 1008.7
20260505235003 11 24 0.0 0.0 0.00 0.00 0.00 86 1008.7
20260505234505 11 24 0.0 0.0 0.00 0.00 0.00 86 1008.6
20260505234003 11 23 0.0 0.0 0.00 0.00 0.00 86 1008.8
20260505233503 11 24 0.0 0.0 0.00 0.00 0.00 85 1009.0
20260505233003 11 24 0.0 0.0 0.00 0.00 0.00 84 1008.6
20260505232503 12 24 0.0 0.0 0.00 0.00 0.00 83 1008.9
20260505232003 12 24 0.0 0.0 0.00 0.00 0.00 82 1008.8
20260505231504 12 55 0.0 0.0 0.00 0.00 0.00 81 1008.8
20260505231003 12 55 0.0 0.0 0.00 0.00 0.00 80 1008.8
20260505230502 13 55 0.0 0.0 0.00 0.00 0.00 78 1008.7
20260505230004 13 56 0.0 0.0 0.00 0.00 0.00 78 1008.7
20260505225502 13 42 0.0 3.2 0.00 0.00 0.00 81 1008.9
20260505225002 13 48 0.0 1.6 0.00 0.00 0.00 82 1008.9
20260505224502 12 50 0.0 1.6 0.00 0.00 0.00 83 1009.1
20260505224003 12 43 0.0 0.0 0.00 0.00 0.00 84 1009.2
20260505223503 12 50 0.0 0.0 0.00 0.00 0.00 85 1009.1
20260505223002 12 33 0.0 0.0 0.00 0.00 0.00 87 1009.3
20260505222504 12 31 0.0 0.0 0.00 0.00 0.00 87 1009.5
20260505222003 12 31 0.0 0.0 0.00 0.00 0.00 86 1009.4
20260505221505 12 31 0.0 0.0 0.00 0.00 0.00 85 1009.4
20260505221002 13 31 0.0 0.0 0.00 0.00 0.00 84 1009.3
20260505220504 13 31 0.0 0.0 0.00 0.00 0.00 83 1009.2
20260505220002 13 31 0.0 0.0 0.00 0.00 0.00 81 1009.3
20260505215506 14 31 0.0 0.0 0.00 0.00 0.00 79 1009.5
20260505215003 14 31 0.0 0.0 0.00 0.00 0.00 78 1009.4
20260505214504 15 31 0.0 0.0 0.00 0.00 0.00 77 1009.7
20260505214004 15 31 0.0 1.6 0.00 0.00 0.00 77 1009.4
20260505213503 15 31 0.0 0.0 0.00 0.00 0.00 77 1009.6
20260505213005 15 31 0.0 0.0 0.00 0.00 0.00 76 1009.6
20260505212508 15 30 1.6 3.2 0.00 0.00 0.00 76 1009.4
20260505212005 16 32 0.0 1.6 0.00 0.00 0.00 75 1009.5
20260505211503 16 36 0.0 4.8 0.00 0.00 0.00 75 1009.5
20260505211004 16 34 0.0 0.0 0.00 0.00 0.00 75 1009.4
20260505210503 16 13 1.6 3.2 0.00 0.00 0.00 74 1009.2
20260505210002 16 30 0.0 4.8 0.00 0.00 0.00 74 1009.4
20260505205502 16 25 0.0 4.8 0.00 0.00 0.00 74 1009.3
20260505205002 16 27 3.2 3.2 0.00 0.00 0.00 74 1009.4
20260505204502 16 16 3.2 4.8 0.00 0.00 0.00 73 1009.5
20260505204003 16 1 1.6 8.0 0.00 0.00 0.00 73 1009.4
20260505203505 17 2 1.6 4.8 0.00 0.00 0.00 72 1009.2
20260505203006 17 14 3.2 9.7 0.00 0.00 0.00 72 1009.6
20260505202504 17 12 4.8 9.7 0.00 0.00 0.00 71 1009.4
20260505202004 17 349 4.8 11.3 0.00 0.00 0.00 71 1009.5
20260505201503 17 34 3.2 4.8 0.00 0.00 0.00 71 1009.7
20260505201005 17 68 3.2 8.0 0.00 0.00 0.00 71 1009.3
20260505200503 17 40 6.4 8.0 0.00 0.00 0.00 71 1009.3
20260505200004 17 12 4.8 9.7 0.00 0.00 0.00 71 1009.4
20260505195504 17 26 0.0 4.8 0.00 0.00 0.00 71 1009.5
20260505195003 17 19 4.8 8.0 0.00 0.00 0.00 71 1009.2
20260505194506 17 28 4.8 4.8 0.00 0.00 0.00 71 1009.6
20260505194003 17 40 4.8 4.8 0.00 0.00 0.00 71 1009.2
20260505193503 17 23 3.2 8.0 0.00 0.00 0.00 71 1009.3
20260505193003 18 8 1.6 11.3 0.00 0.00 0.00 72 1009.4
20260505192504 18 19 3.2 9.7 0.00 0.00 0.00 72 1009.4
20260505192003 18 4 4.8 9.7 0.00 0.00 0.00 72 1009.5
20260505191502 17 21 1.6 9.7 0.00 0.00 0.00 73 1009.7
20260505191003 17 32 3.2 9.7 0.00 0.00 0.00 73 1009.6
20260505190502 17 43 4.8 4.8 0.00 0.00 0.00 73 1009.5
20260505190003 18 6 4.8 14.5 0.00 0.00 0.00 72 1009.4
20260505185504 18 9 8.0 12.9 0.00 0.00 0.00 72 1009.6
20260505185007 18 5 4.8 9.7 0.00 0.00 0.00 71 1009.6
20260505184502 18 10 8.0 9.7 0.00 0.00 0.00 71 1009.9
20260505184003 18 27 1.6 8.0 0.00 0.00 0.00 71 1010.0
20260505183502 18 17 0.0 3.2 0.00 0.00 0.00 71 1009.8
20260505183004 19 13 1.6 8.0 0.00 0.00 0.00 70 1009.9
20260505182502 20 31 4.8 11.3 0.00 0.00 0.00 67 1009.9
20260505182003 20 8 1.6 3.2 0.00 0.00 0.00 64 1009.8
20260505181503 20 323 3.2 4.8 0.00 0.00 0.00 64 1009.6
20260505181003 20 5 1.6 3.2 0.00 0.00 0.00 63 1009.4
20260505180504 20 345 4.8 9.7 0.00 0.00 0.00 63 1009.4
20260505180003 20 34 3.2 8.0 0.00 0.00 0.00 63 1009.3
20260505175004 20 9 8.0 11.3 0.00 0.00 0.00 62 1009.2
20260505174503 21 335 4.8 9.7 0.00 0.00 0.00 62 1009.0
20260505174002 21 17 1.6 12.9 0.00 0.00 0.00 62 1009.0
20260505173504 21 24 6.4 9.7 0.00 0.00 0.00 61 1008.9
20260505173004 21 336 4.8 12.9 0.00 0.00 0.00 60 1009.0
20260505172504 21 359 4.8 16.1 0.00 0.00 0.00 60 1009.0
20260505172003 21 25 8.0 16.1 0.00 0.00 0.00 59 1009.1
20260505171504 22 33 4.8 9.7 0.00 0.00 0.00 59 1009.0
20260505171003 22 337 8.0 9.7 0.00 0.00 0.00 58 1008.9
20260505170505 22 19 9.7 14.5 0.00 0.00 0.00 57 1009.0
20260505170004 22 333 4.8 14.5 0.00 0.00 0.00 56 1008.9
20260505165504 23 341 9.7 14.5 0.00 0.00 0.00 55 1008.9
20260505165004 23 333 4.8 11.3 0.00 0.00 0.00 53 1009.0
20260505164502 25 11 4.8 11.3 0.00 0.00 0.00 47 1008.8
20260505164003 25 353 1.6 8.0 0.00 0.00 0.00 36 1008.7
20260505163502 25 44 1.6 4.8 0.00 0.00 0.00 36 1008.5
20260505163004 25 34 1.6 4.8 0.00 0.00 0.00 36 1008.6
20260505162502 25 39 4.8 8.0 0.00 0.00 0.00 36 1008.7
20260505162003 25 39 0.0 4.8 0.00 0.00 0.00 37 1008.6
20260505161505 26 347 4.8 9.7 0.00 0.00 0.00 35 1008.7
20260505161002 26 66 3.2 8.0 0.00 0.00 0.00 34 1008.8
20260505160504 26 339 3.2 4.8 0.00 0.00 0.00 33 1008.7
20260505153005 28 35 0.0 1.6 0.00 0.00 0.00 30 1009.1
20260505152503 27 6 0.0 1.6 0.00 0.00 0.00 31 1009.1
20260505152004 27 50 3.2 8.0 0.00 0.00 0.00 30 1009.2
20260505151506 27 66 1.6 3.2 0.00 0.00 0.00 32 1009.2
20260505151004 27 23 0.0 3.2 0.00 0.00 0.00 31 1009.0
20260505150503 28 347 1.6 3.2 0.00 0.00 0.00 30 1008.9
20260505140502 26 35 0.0 1.6 0.00 0.00 0.00 34 1009.5
20260505125004 28 267 0.0 4.8 0.00 0.00 0.00 31 1010.0
20260505124503 28 17 0.0 3.2 0.00 0.00 0.00 31 1009.9
20260505124004 28 338 1.6 3.2 0.00 0.00 0.00 29 1009.9
20260505123505 28 164 1.6 4.8 0.00 0.00 0.00 29 1010.0
20260505123005 28 167 1.6 4.8 0.00 0.00 0.00 30 1010.0
20260505122504 27 194 0.0 1.6 0.00 0.00 0.00 31 1010.2
20260505122003 27 169 3.2 3.2 0.00 0.00 0.00 30 1010.2
20260505121504 27 64 3.2 4.8 0.00 0.00 0.00 31 1010.3
20260505121006 27 131 3.2 4.8 0.00 0.00 0.00 31 1010.4
20260505120503 27 6 1.6 8.0 0.00 0.00 0.00 33 1010.5
20260505120004 27 293 3.2 3.2 0.00 0.00 0.00 33 1010.4
20260505115504 27 40 1.6 4.8 0.00 0.00 0.00 32 1010.5
20260505115003 27 94 1.6 8.0 0.00 0.00 0.00 32 1010.6
20260505114505 27 71 4.8 8.0 0.00 0.00 0.00 31 1010.6
20260505114004 27 64 0.0 1.6 0.00 0.00 0.00 33 1010.6
20260505113502 27 93 4.8 4.8 0.00 0.00 0.00 31 1010.6
20260505113004 27 54 1.6 3.2 0.00 0.00 0.00 30 1010.6
20260505112503 27 338 1.6 3.2 0.00 0.00 0.00 32 1010.8
20260505112002 27 193 0.0 1.6 0.00 0.00 0.00 35 1010.7
20260505111503 27 135 0.0 3.2 0.00 0.00 0.00 32 1010.8
20260505111003 26 148 1.6 8.0 0.00 0.00 0.00 33 1010.9
20260505110502 26 9 3.2 4.8 0.00 0.00 0.00 35 1010.9
20260505102003 25 56 3.2 4.8 0.00 0.00 0.00 39 1011.3
20260505101504 25 24 6.4 9.7 0.00 0.00 0.00 39 1011.3
20260505101003 25 29 1.6 4.8 0.00 0.00 0.00 40 1011.3
20260505100505 24 38 1.6 8.0 0.00 0.00 0.00 41 1011.3
20260505100002 23 358 1.6 3.2 0.00 0.00 0.00 42 1011.5
20260505095503 23 357 1.6 3.2 0.00 0.00 0.00 43 1011.4
20260505095004 23 343 4.8 4.8 0.00 0.00 0.00 42 1011.5
20260505094503 23 2 0.0 3.2 0.00 0.00 0.00 42 1011.6
20260505094003 23 343 1.6 8.0 0.00 0.00 0.00 41 1011.6
20260505093503 23 2 1.6 4.8 0.00 0.00 0.00 42 1011.7
20260505093002 23 353 1.6 3.2 0.00 0.00 0.00 42 1011.6
20260505092503 23 122 1.6 3.2 0.00 0.00 0.00 39 1011.5
20260505092003 24 169 1.6 4.8 0.00 0.00 0.00 40 1011.8
20260505091503 23 62 0.0 1.6 0.00 0.00 0.00 41 1011.7
20260505091004 23 180 1.6 3.2 0.00 0.00 0.00 38 1011.9
20260505090503 24 149 1.6 4.8 0.00 0.00 0.00 41 1012.0
20260505090004 23 78 0.0 3.2 0.00 0.00 0.00 42 1011.9
20260505085503 22 40 1.6 3.2 0.00 0.00 0.00 44 1012.0
20260505085004 21 103 0.0 1.6 0.00 0.00 0.00 46 1012.0
20260505084503 21 37 1.6 1.6 0.00 0.00 0.00 50 1012.1
20260505084003 21 100 1.6 1.6 0.00 0.00 0.00 53 1012.2
20260505083503 22 40 0.0 1.6 0.00 0.00 0.00 52 1012.2
20260505083003 21 43 0.0 1.6 0.00 0.00 0.00 55 1012.4